Great Bend, KS

12:14 AM CDT on June 25, 2017 (GMT -0500)
Great Bend Municipal

Weather History for KGBD - March, 2014

Change the Weather History Date:

Thursday, March 27, 2014

  Actual Average Record
Temperature  
Mean Temperature 48 °F -  
Max Temperature 60 °F 63 °F 82 °F (1962)
Min Temperature 35 °F 38 °F 12 °F (1955)
Degree Days  
Heating Degree Days 18    
Moisture  
Dew Point 38 °F    
Average Humidity 62    
Maximum Humidity 87    
Minimum Humidity 38    
Precipitation  
Precipitation 0.00 in - - ()
Sea Level Pressure  
Sea Level Pressure 29.54 in    
Wind  
Wind Speed 21 mph (WNW)    
Max Wind Speed 30 mph    
Max Gust Speed 38 mph    
Visibility 10 miles    
Events      
Averages and records for this station are not official NWS values.
T = Trace of Precipitation, MM = Missing Value Source: NWS Daily Summary

Daily Weather History Graph

Daily Weather History Graph

Search for Another Location

Airport or City:

Trip Planner

Search our weather history database for the weather conditions in past years. The results will help you decide how hot, cold, wet, or windy it might be!

Date:

Astronomy

Mar. 27, 2014 Rise Set
Actual Time 7:28 AM CDT 7:54 PM CDT
Civil Twilight 7:01 AM CDT 8:20 PM CDT
Nautical Twilight 6:30 AM CDT 8:51 PM CDT
Astronomical Twilight 5:58 AM CDT 9:23 PM CDT
Moon 5:17 AM CDT (3/27) 4:45 PM CDT (3/27)
Length of Visible Light 13h 19m
Length of Day
12h 26m
Waning Crescent, 13% of the Moon is Illuminated
Mar 27
Waning Crescent
Mar 30
New
Apr 7
First Quarter
Apr 15
Full
Apr 22
Last Quarter

Hourly Weather History & Observations

Time (CDT) Temp. Windchill Dew Point Humidity Pressure Visibility Wind Dir Wind Speed Gust Speed Precip Events Conditions
12:15 AM 44.6 °F 35.7 °F 39.2 °F 81% 29.46 in 7.0 mi South 24.2 mph 31.1 mph N/A   Overcast
12:35 AM 46.4 °F 37.7 °F 41.0 °F 81% 29.45 in 8.0 mi South 26.5 mph 32.2 mph N/A   Overcast
12:55 AM 46.4 °F 37.7 °F 42.8 °F 87% 29.44 in 10.0 mi South 26.5 mph 34.5 mph N/A   Overcast
1:15 AM 48.2 °F - 42.8 °F 82% 29.43 in 10.0 mi South 26.5 mph 38.0 mph N/A   Overcast
1:35 AM 48.2 °F - 42.8 °F 82% 29.41 in 10.0 mi South 27.6 mph 33.4 mph N/A   Overcast
1:55 AM 48.2 °F - 42.8 °F 82% 29.40 in 10.0 mi South 27.6 mph 33.4 mph N/A   Overcast
2:15 AM 48.2 °F - 42.8 °F 82% 29.39 in 10.0 mi South 25.3 mph 32.2 mph N/A   Mostly Cloudy
2:35 AM 48.2 °F - 44.6 °F 87% 29.39 in 10.0 mi South 24.2 mph 29.9 mph N/A   Partly Cloudy
2:55 AM 50.0 °F - 44.6 °F 82% 29.38 in 10.0 mi South 25.3 mph 35.7 mph N/A   Clear
3:15 AM 51.8 °F - 46.4 °F 82% 29.37 in 10.0 mi South 29.9 mph 35.7 mph N/A   Clear
3:35 AM 53.6 °F - 46.4 °F 77% 29.37 in 10.0 mi SSW 24.2 mph 34.5 mph N/A   Clear
3:55 AM 53.6 °F - 48.2 °F 82% 29.37 in 10.0 mi SSW 23.0 mph 34.5 mph N/A   Clear
4:15 AM 53.6 °F - 46.4 °F 77% 29.36 in 10.0 mi SSW 25.3 mph 31.1 mph N/A   Clear
4:35 AM 53.6 °F - 46.4 °F 77% 29.36 in 10.0 mi SSW 26.5 mph 33.4 mph N/A   Clear
4:55 AM 53.6 °F - 48.2 °F 82% 29.35 in 10.0 mi SSW 26.5 mph 33.4 mph N/A   Clear
5:15 AM 53.6 °F - 46.4 °F 77% 29.35 in 10.0 mi SSW 26.5 mph 31.1 mph N/A   Clear
5:35 AM 53.6 °F - 46.4 °F 77% 29.35 in 10.0 mi SSW 23.0 mph 33.4 mph N/A   Clear
5:55 AM 53.6 °F - 46.4 °F 77% 29.35 in 10.0 mi SSW 19.6 mph - N/A   Clear
6:15 AM 53.6 °F - 46.4 °F 77% 29.34 in 10.0 mi SSW 21.9 mph 28.8 mph N/A   Clear
6:35 AM 53.6 °F - 46.4 °F 77% 29.34 in 10.0 mi SSW 19.6 mph 28.8 mph N/A   Clear
6:55 AM 51.8 °F - 46.4 °F 82% 29.33 in 10.0 mi SSW 20.7 mph - N/A   Clear
7:15 AM 51.8 °F - 46.4 °F 82% 29.33 in 10.0 mi SSW 19.6 mph 26.5 mph N/A   Clear
7:35 AM 51.8 °F - 44.6 °F 76% 29.33 in 10.0 mi SSW 19.6 mph - N/A   Clear
7:55 AM 51.8 °F - 44.6 °F 76% 29.33 in 10.0 mi SSW 15.0 mph - N/A   Clear
8:15 AM 51.8 °F - 44.6 °F 76% 29.34 in 10.0 mi SW 12.7 mph - N/A   Clear
8:35 AM 51.8 °F - 46.4 °F 82% 29.36 in 10.0 mi SW 10.4 mph - N/A   Clear
8:55 AM 51.8 °F - 44.6 °F 76% 29.36 in 10.0 mi SW 13.8 mph - N/A   Clear
9:15 AM 53.6 °F - 44.6 °F 72% 29.36 in 10.0 mi WSW 16.1 mph 20.7 mph N/A   Clear
9:35 AM 55.4 °F - 42.8 °F 63% 29.37 in 10.0 mi West 17.3 mph 24.2 mph N/A   Clear
9:55 AM 55.4 °F - 42.8 °F 63% 29.38 in 10.0 mi West 16.1 mph 21.9 mph N/A   Clear
10:15 AM 53.6 °F - 42.8 °F 67% 29.40 in 10.0 mi NW 16.1 mph 26.5 mph N/A   Partly Cloudy
10:35 AM 55.4 °F - 42.8 °F 63% 29.43 in 10.0 mi NW 19.6 mph - N/A   Mostly Cloudy
10:55 AM 55.4 °F - 44.6 °F 67% 29.44 in 10.0 mi NW 15.0 mph 20.7 mph N/A   Mostly Cloudy
11:15 AM 57.2 °F - 44.6 °F 63% 29.46 in 10.0 mi NW 24.2 mph 29.9 mph N/A   Mostly Cloudy
11:35 AM 55.4 °F - 42.8 °F 63% 29.47 in 10.0 mi NW 23.0 mph 29.9 mph N/A   Overcast
11:55 AM 55.4 °F - 41.0 °F 58% 29.49 in 10.0 mi NW 28.8 mph 35.7 mph N/A   Overcast
12:15 PM 53.6 °F - 39.2 °F 58% 29.52 in 10.0 mi NW 25.3 mph 35.7 mph N/A   Scattered Clouds
12:35 PM 55.4 °F - 37.4 °F 51% 29.53 in 10.0 mi NNW 23.0 mph 32.2 mph N/A   Clear
12:55 PM 57.2 °F - 37.4 °F 48% 29.54 in 10.0 mi NW 21.9 mph 31.1 mph N/A   Clear
1:15 PM 57.2 °F - 37.4 °F 48% 29.54 in 10.0 mi NW 21.9 mph 35.7 mph N/A   Clear
1:35 PM 57.2 °F - 37.4 °F 48% 29.54 in 10.0 mi NW 24.2 mph 32.2 mph N/A   Clear
1:55 PM 57.2 °F - 35.6 °F 44% 29.55 in 10.0 mi NNW 21.9 mph 31.1 mph N/A   Clear
2:15 PM 57.2 °F - 35.6 °F 44% 29.57 in 10.0 mi NW 21.9 mph 28.8 mph N/A   Clear
2:35 PM 57.2 °F - 35.6 °F 44% 29.57 in 10.0 mi NNW 24.2 mph 29.9 mph N/A   Clear
2:55 PM 57.2 °F - 35.6 °F 44% 29.59 in 10.0 mi NNW 17.3 mph 29.9 mph N/A   Clear
3:15 PM 59.0 °F - 35.6 °F 42% 29.60 in 10.0 mi NW 19.6 mph 28.8 mph N/A   Partly Cloudy
3:35 PM 60.8 °F - 35.6 °F 39% 29.61 in 10.0 mi NW 20.7 mph 24.2 mph N/A   Mostly Cloudy
3:55 PM 60.8 °F - 35.6 °F 39% 29.62 in 10.0 mi NNW 18.4 mph 29.9 mph N/A   Mostly Cloudy
4:15 PM 60.8 °F - 35.6 °F 39% 29.63 in 10.0 mi NW 21.9 mph 26.5 mph N/A   Partly Cloudy
4:35 PM 59.0 °F - 33.8 °F 39% 29.63 in 10.0 mi NW 19.6 mph 27.6 mph N/A   Clear
4:55 PM 59.0 °F - 33.8 °F 39% 29.64 in 10.0 mi NW 18.4 mph 27.6 mph N/A   Partly Cloudy
5:15 PM 59.0 °F - 33.8 °F 39% 29.66 in 10.0 mi NW 18.4 mph 25.3 mph N/A   Partly Cloudy
5:35 PM 57.2 °F - 33.8 °F 41% 29.67 in 10.0 mi NW 15.0 mph 25.3 mph N/A   Partly Cloudy
5:55 PM 57.2 °F - 32.0 °F 38% 29.69 in 10.0 mi NNW 20.7 mph 25.3 mph N/A   Clear
6:15 PM 55.4 °F - 30.2 °F 38% 29.71 in 10.0 mi North 18.4 mph - N/A   Clear
6:35 PM 55.4 °F - 30.2 °F 38% 29.71 in 10.0 mi NNW 16.1 mph 23.0 mph N/A   Clear
6:55 PM 53.6 °F - 30.2 °F 41% 29.73 in 10.0 mi NNW 15.0 mph - N/A   Clear
7:15 PM 51.8 °F - 28.4 °F 41% 29.74 in 10.0 mi North 11.5 mph - N/A   Clear
7:35 PM 51.8 °F - 30.2 °F 44% 29.75 in 10.0 mi North 11.5 mph - N/A   Clear
7:55 PM 48.2 °F - 30.2 °F 50% 29.77 in 10.0 mi NNE 11.5 mph - N/A   Clear
8:15 PM 48.2 °F - 30.2 °F 50% 29.79 in 10.0 mi NNE 12.7 mph - N/A   Clear
8:35 PM 46.4 °F 42.4 °F 28.4 °F 50% 29.81 in 10.0 mi NNE 8.1 mph - N/A   Clear
8:55 PM 44.6 °F 40.7 °F 28.4 °F 53% 29.83 in 10.0 mi NE 6.9 mph - N/A   Clear
9:15 PM 44.6 °F 39.2 °F 28.4 °F 53% 29.83 in 10.0 mi NE 10.4 mph - N/A   Clear
9:35 PM 42.8 °F 36.6 °F 28.4 °F 57% 29.85 in 10.0 mi NE 11.5 mph - N/A   Clear
9:55 PM 41.0 °F 33.9 °F 28.4 °F 61% 29.86 in 10.0 mi NE 12.7 mph - N/A   Clear
10:15 PM 39.2 °F 33.0 °F 28.4 °F 65% 29.86 in 10.0 mi NE 9.2 mph - N/A   Clear
10:35 PM 39.2 °F 32.5 °F 28.4 °F 65% 29.87 in 10.0 mi NE 10.4 mph - N/A   Clear
10:55 PM 37.4 °F 31.4 °F 26.6 °F 65% 29.87 in 10.0 mi NE 8.1 mph - N/A   Clear
11:15 PM 37.4 °F 31.4 °F 26.6 °F 65% 29.88 in 10.0 mi NE 8.1 mph - N/A   Clear
11:35 PM 35.6 °F 28.6 °F 26.6 °F 70% 29.88 in 10.0 mi NE 9.2 mph - N/A   Clear
11:55 PM 35.6 °F 28.0 °F 26.6 °F 70% 29.88 in 10.0 mi NE 10.4 mph - N/A   Clear